Regional Weather Roundup
Issued by NWS

Home | Current Version | Previous Version | Text Only | Print | Product List | Glossary On
Versions: 1 2 3 4 5 6 7 8 9 10 11 12 13 14 15 16 17 18 19 20 21 22 23 24 25 26 27
000
ASUS44 KJAN 310610
RWRMS

MISSISSIPPI HOURLY WEATHER ROUNDUP
NATIONAL WEATHER SERVICE JACKSON MS
100 AM CDT SAT JUL 31 2021

NOTE: "FAIR: INDICATES FEW OR NO CLOUDS BELOW 12,000 FEET WITH NO
SIGNIFICANT WEATHER AND/OR OBSTRUCTIONS TO VISIBILITY.

MSZ001>002-007>008-010>013-018>021-025>028-034>036-310700-
NORTHWEST MISSISSIPPI

CITY           SKY/WX    TMP DP  RH WIND       PRES   REMARKS
BATESVILLE     FAIR      77  77 100 S5        30.00F FOG
CLARKSDALE     CLEAR     79  79 100 CALM      30.02F
GREENWOOD      CLEAR     80  77  90 CALM      30.02F
6HR MIN TEMP:  80; 6HR MAX TEMP:  90;

GREENVILLE     CLEAR     77  74  90 S3        30.01F
6HR MIN TEMP:  77; 6HR MAX TEMP:  93;

OLIVE BRANCH     N/A     81  77  89 CALM      30.01F
OXFORD         CLEAR     79  79 100 CALM      30.03F
TUNICA           N/A     77  77 100 CALM      30.01F
WINONA         FAIR      77  77  99 CALM      30.03F FOG
$$

MSZ003>006-009-014>017-022>024-029>033-037>039-310700-
NORTHEAST MISSISSIPPI

CITY           SKY/WX    TMP DP  RH WIND       PRES   REMARKS
ABERDEEN       FAIR      79  79 100 CALM      30.02F FOG
COLUMBUS AFB   MOCLDY    80  79  98 CALM      29.99F
6HR MIN TEMP:  80; 6HR MAX TEMP:  90; 6HR PCP: TRACE;

CORINTH        MOCLDY    75  73  94 CALM      30.02F
GOLDN TRIANGLE MOCLDY    79  79 100 W3        30.02F
STARKVILLE     FAIR      79  79 100 CALM      30.01F FOG
TUPELO         PTCLDY    83  78  85 CALM      30.01F HX  93
6HR MIN TEMP:  82; 6HR MAX TEMP:  90;

$$

MSZ040-058-310700-
CENTRAL MISSISSIPPI

CITY           SKY/WX    TMP DP  RH WIND       PRES   REMARKS
JACKSON INTL   CLEAR     76  73  91 CALM      30.03F
6HR MIN TEMP:  75; 6HR MAX TEMP:  91;

JACKSON HAWKNS CLEAR     78  76  93 CALM      30.04F
6HR MIN TEMP:  78; 6HR MAX TEMP:  91;

MERIDIAN KEY   PTCLDY    77  75  93 SW3       30.02F
6HR MIN TEMP:  77; 6HR MAX TEMP:  89;

MERIDIAN NAS   CLEAR     79  77  94 CALM      30.01F
6HR MIN TEMP:  78; 6HR MAX TEMP:  89;

RAYMOND        FAIR      77  77 100 CALM      30.03F FOG
VICKSBURG VKS  CLEAR     79  79 100 CALM      30.02S
$$

MSZ059>079-310700-
SOUTH MISSISSIPPI

CITY           SKY/WX    TMP DP  RH WIND       PRES   REMARKS
HATTIESBURG    PTCLDY    81  77  88 CALM      30.03F
6HR MIN TEMP:  81; 6HR MAX TEMP:  91;

LAUREL         CLEAR     78  76  94 CALM      30.03F FOG
MCCOMB         CLEAR     80  80 100 CALM      30.04F
6HR MIN TEMP:  80; 6HR MAX TEMP:  93;

NATCHEZ        PTCLDY    81  79  94 CALM      30.05F HX  90
6HR MIN TEMP:  81; 6HR MAX TEMP:  91;

PINE BELT      PTCLDY    77  77 100 CALM      30.04F FOG
6HR MIN TEMP:  77; 6HR MAX TEMP:  90;

$$

MSZ080>082-310700-
COASTAL MISSISSIPPI

CITY           SKY/WX    TMP DP  RH WIND       PRES   REMARKS
BILOXI         PTCLDY    83  79  87 CALM      30.00F HX  93
6HR MIN TEMP:  82; 6HR MAX TEMP:  87;

PASCAGOULA     PTCLDY    79  78  97 CALM      30.02F
6HR MIN TEMP:  79; 6HR MAX TEMP:  89;

GULFPORT       MOCLDY    82  78  88 CALM      30.01F HX  91
6HR MIN TEMP:  81; 6HR MAX TEMP:  89;

$$

LAZ007>009-015>016-023>026-310700-
NORTHEAST LOUISIANA

CITY           SKY/WX    TMP DP  RH WIND       PRES   REMARKS
TALLULAH/VBURG CLEAR     81  76  84 CALM      30.03S HAZE
6HR MIN TEMP:  81; 6HR MAX TEMP:  94;

VIDALIA        CLOUDY    83  79  89 CALM      30.02F HX  93
$$



USA.gov is the U.S. government's official web portal to all federal, state and local government web resources and services.